Location: Unspecified
(0.0000°N, 0.0000°E)
Time: 21:51:27
(UTC+00:00)

ISS - Pass Details

Date: 22 May 2017
Orbit: 402 x 408 km, 51.6° (Epoch: 26 May)

Event Time Altitude Azimuth Distance (km) Brightness Sun altitude
Rises 19:48:24 0° 249° (WSW) 2,325 0.7 -26.0°
Reaches altitude 10° 19:51:29 10° 280° (W) 1,462 -0.1 -26.7°
Maximum altitude 19:52:54 12° 306° (NW) 1,331 -0.3 -27.0°
Drops below altitude 10° 19:54:19 10° 332° (NNW) 1,458 -0.4 -27.4°
Enters shadow 19:57:22 - 4° (N) 2,301 0.2 -28.1°
